Portada
METAR-TAF:

METAR-TAF

Aeroports :

Bundaberg, Austràlia

latitud: 24-54-14S, longitud: 152-19-07E, altitud: 33 m

Observació

L'informe es va fer fa 33 minuts, a les 20:30 UTC
Vent 6 kt del Sud/Sud-Oest
Temperatura 22°C
Humitat 94%
Pressió 1007 hPa
Visibilitat 10 km o més
Cel cobert a una alçada de 1400 ft

METAR: YBUD 192030Z AUTO 21006KT 9999 // OVC014 22/21 Q1007

Hora: 07:03 (21:03 UTC)


TAF: manca

Observacions i pronòstics meteorològics de més de 4000 aeroports (METAR i TAF).

Les estacions disponibles són els punts grocs i vermells al mapa.

Posi el ratolí al punt desitjat per veure el nom de l'estació.

Feu clic per veure les observacions i els pronòstics meteorològics.

Per canviar el mapa: feu clic els botons verds amb una creu de color negre per apropar; al botó verd amb un guió per allunyar la imatge; o en les fletxes verdes per a mapes adjacents.


METAR-TAF: